This is the latest recevied weather packets stored in our database for station/object WX7FGZ-5. If no packets are shown the sender has not sent any weather packets the latest 1 day(s).
| Time | Temp. | Humidity | Pressure | Rain* | Wind** | Luminosity | Snow |
|---|---|---|---|---|---|---|---|
| 1777995795 | 6.11° C | 62% | 1017 hPa | 0 mm | 4.47 m/s, 176° | 687 W/m² | - |
| 1777995603 | 6.11° C | 62% | 1017 hPa | 0 mm | 4.47 m/s, 176° | 687 W/m² | - |
| 1777995525 | 6.11° C | 62% | 1016.9 hPa | 0 mm | 4.92 m/s, 186° | 134 W/m² | - |
| 1777995303 | 6.11° C | 62% | 1016.9 hPa | 0 mm | 4.92 m/s, 186° | 134 W/m² | - |
| 1777995241 | 6.11° C | 63% | 1017 hPa | 0 mm | 4.02 m/s, 196° | 95 W/m² | - |
| 1777995023 | 6.11° C | 63% | 1017 hPa | 0 mm | 4.02 m/s, 196° | 95 W/m² | - |
| 1777994705 | 5.56° C | 66% | 1017.1 hPa | 0 mm | 4.47 m/s, 190° | 671 W/m² | - |
| 1777993803 | 5° C | 73% | 1016.8 hPa | 0 mm | 1.34 m/s, 220° | 93 W/m² | - |
| 1777993503 | 5° C | 73% | 1016.8 hPa | 0 mm | 1.34 m/s, 230° | 81 W/m² | - |
| 1777993208 | 5° C | 73% | 1016.9 hPa | 0 mm | 1.34 m/s, 233° | 97 W/m² | - |
| 1777992903 | 5° C | 72% | 1017 hPa | 0 mm | 0.45 m/s, 257° | 123 W/m² | - |
| 1777992808 | 5° C | 72% | 1017.1 hPa | 0 mm | 0.45 m/s, 255° | 193 W/m² | - |
| 1777992603 | 5° C | 72% | 1017.1 hPa | 0 mm | 0.45 m/s, 255° | 193 W/m² | - |
| 1777992197 | 5° C | 70% | 1017.2 hPa | 0 mm | 0.45 m/s, 256° | 72 W/m² | - |
| 1777992003 | 5° C | 70% | 1017.2 hPa | 0 mm | 0.45 m/s, 256° | 72 W/m² | - |
| 1777991707 | 5.56° C | 67% | 1017.1 hPa | 0 mm | 0.45 m/s, 288° | 67 W/m² | - |
| 1777991591 | 5.56° C | 67% | 1017.2 hPa | 0 mm | 0.45 m/s, 294° | 58 W/m² | - |
| 1777991420 | 5.56° C | 67% | 1017.2 hPa | 0 mm | 0.45 m/s, 294° | 58 W/m² | - |
| 1777990616 | 5° C | 67% | 1017.1 hPa | 0 mm | 0 m/s | 134 W/m² | - |
| 1777990502 | 5° C | 67% | 1017.1 hPa | 0 mm | 0 m/s | 134 W/m² | - |
| 1777990203 | 5° C | 67% | 1017.1 hPa | 0 mm | 0.45 m/s, 342° | 359 W/m² | - |
| 1777990075 | 4.44° C | 68% | 1017.2 hPa | 0 mm | 0 m/s | 366 W/m² | - |
| 1777989903 | 4.44° C | 68% | 1017.2 hPa | 0 mm | 0 m/s | 366 W/m² | - |
| 1777989158 | 3.89° C | 68% | 1017 hPa | 0 mm | 0 m/s | 63 W/m² | - |
| 1777989008 | 3.89° C | 68% | 1017 hPa | 0 mm | 0 m/s | 63 W/m² | - |
* Rain latest hour (hover to see other rain measurements)
** Current wind speed in m/s (hover to see current wind gust speed)